Tracking 30995 objects as of 5-Jul-2025
HD Live streaming from Space Station
objects crossing your sky now

AAC-AIS-SAT3

Track AAC-AIS-SAT3 now!
10-day predictions


NORAD ID: 58997
Int'l Code: 2023-174DJ
Perigee: 627.1 km
Apogee: 637.3 km
Inclination: 97.7 °
Period: 97.2 minutes
Semi major axis: 7003 km
RCS: Unknown
Launch date: November 11, 2023
Source: United Kingdom (UK)
Launch site: AIR FORCE WESTERN TEST RANGE (AFWTR)
Your satellite tracking list
IRIDIUM 33 DEB
Track 1 satellite(s)




NASA's NSSDC Master Catalog

Two Line Element Set (TLE):
1 58997U 23174DJ  25186.56916067  .00003274  00000-0  42523-3 0  9992
2 58997  97.6724 244.9941 0007303  31.5894 328.5756 14.81353862 89779
Source of the keplerian elements: AFSPC